Meteo Giornale » Osservazioni meteo Italia » Roma-Ciampino

ore: 15:50 - Osservazioni Meteo Roma-Ciampino
Lat. 41° 47' N Lon. 12° 35' E Alt. 129 metri s.l.m.

sereno Europe/Rome

27 °C

Sereno

Temp. 24 Ore

15 °C

29 °C

Ovest

27.8 Km/h

Dew point 6 °C

Umidità 26 %

Visibilità  10 Km

Il sole sorge alle ore 05:37

Il sole tramonta alle ore 20:36

Data e Ora Cielo e Fenomeni T °C DP °C Um. % Pres. hPa Vis. km Vento km/h
Oggi h: 15:50 sereno Sereno 27 6 26 1018 10 O 27.8
Oggi h: 15:20 sereno Sereno 28 7 26 1018 10 O 25.9
Oggi h: 14:50 sereno Sereno 29 5 21 1018 10 O/NO 13
Oggi h: 14:20 sereno Sereno 28 6 24 1019 10 N 7.4
Oggi h: 13:50 sereno Sereno 28 5 23 1019 10 N 7.4
Oggi h: 13:20 sereno Sereno 28 5 23 1019 10 N 7.4
Oggi h: 12:50 sereno Sereno 27 5 24 1020 10 N 9.3
Oggi h: 12:20 sereno Sereno 27 5 24 1020 10 O 9.3
Oggi h: 11:50 sereno Sereno 26 5 25 1020 10 N 7.4
Oggi h: 11:20 sereno Sereno 26 6 27 1020 10 N 5.5
Oggi h: 10:50 sereno Sereno 25 7 31 1020 10 N 9.3
Oggi h: 10:20 sereno Sereno 24 7 33 1020 10 N 11.1
Oggi h: 09:50 sereno Sereno 23 8 38 1020 10 N/NE 13
Oggi h: 09:20 sereno Sereno 22 8 40 1020 10 N 13
Oggi h: 08:50 sereno Sereno 21 8 43 1020 10 N 13
Oggi h: 08:20 sereno Sereno 20 8 45 1020 10 N/NE 13
Oggi h: 07:50 sereno Sereno 19 8 48 1020 10 N/NE 11.1
Oggi h: 07:20 sereno Sereno 17 9 59 1020 10 N/NE 7.4
Oggi h: 06:50 sereno Sereno 16 9 63 1020 10 N 5.5
Oggi h: 06:20 sereno Sereno 17 6 48 1020 10 E/NE 7.4
Oggi h: 05:50 sereno Sereno 16 7 55 1020 10 E 7.4
Oggi h: 05:20 sereno Sereno 17 8 55 1020 10 N 5.5
Oggi h: 04:50 sereno Sereno 16 8 58 1020 10 N 5.5
Oggi h: 04:20 sereno Sereno 15 9 67 1020 10 N 5.5
Oggi h: 03:50 sereno Sereno 15 9 67 1020 10 N 5.5
Oggi h: 03:20 sereno Sereno 16 9 63 1019 10 N 1.8
Oggi h: 02:50 sereno Sereno 16 9 63 1019 10 N 3.7
Oggi h: 02:20 sereno Sereno 16 10 67 1019 10 N 1.8
Oggi h: 01:50 sereno Sereno 16 10 67 1019 10 N 3.7
Oggi h: 01:20 sereno Sereno 17 10 63 1019 10 N 1.8
Oggi h: 00:50 sereno Sereno 16 10 67 1020 10 N 5.5
Oggi h: 00:20 sereno Sereno 17 9 59 1019 10 N 1.8
Ieri h: 23:50 sereno Sereno 18 9 55 1019 10 E 7.4
Ieri h: 23:20 sereno Sereno 18 10 59 1019 10 N 3.7
Ieri h: 22:50 sereno Sereno 18 10 59 1019 10 E/SE 9.3
Ieri h: 22:20 sereno Sereno 19 11 59 1019 10 N 5.5
Ieri h: 21:50 sereno Sereno 20 12 59 1018 10 S/SE 9.3
Ieri h: 21:20 sereno Sereno 20 12 59 1018 10 S 9.3
Ieri h: 20:50 sereno Sereno 21 9 46 1017 10 S 11.1
Ieri h: 20:20 sereno Sereno 22 10 46 1017 10 S 9.3
Ieri h: 19:50 sereno Sereno 23 9 40 1017 10 S/SO 11.1
Ieri h: 19:20 sereno Sereno 24 9 38 1017 10 O/SO 11.1
Ieri h: 18:50 sereno Sereno 25 9 36 1017 10 SO 11.1
Ieri h: 18:20 sereno Sereno 25 10 38 1017 10 O/SO 13
Ieri h: 17:50 poco_nuvoloso Poco Nuvoloso 26 8 31 1017 10 SO 13
Ieri h: 17:20 poco_nuvoloso Poco Nuvoloso 26 9 34 1017 10 SO 11.1
Ieri h: 16:50 poco_nuvoloso Poco Nuvoloso 26 10 36 1017 10 N 14.8